This demonstration page uses our WeatherBlox Daily Observations layout. Learn more.

Left ArrowRight Arrow

34.16533, -84.80231

Hourly Observations for November 26, 2022

Temp ( °F °C ) Dew Point ( °F °C ) Humidity (%) Winds ( mph kmh ) Pressure ( in mb ) Visibility ( mi km ) Precip ( " mm )
12:15 am 00:15 Clear 48 9 46 8 93 93 Calm 30.15 1021 10 16 0.00 0.00
12:35 am 00:35 Clear 46 8 46 8 100 100 Calm 30.17 1022 7 11 0.00 0.00
12:55 am 00:55 Clear 46 8 45 7 93 93 Calm 30.17 1022 7 11 0.00 0.00
1:15 am 01:15 Clear 46 8 46 8 100 100 Calm 30.17 1022 9 14 0.00 0.00
1:35 am 01:35 Clear with Mist and Fog 45 7 45 7 100 100 Calm 30.17 1022 6 10 0.00 0.00
1:55 am 01:55 Clear 45 7 45 7 100 100 Calm 30.17 1022 7 11 0.00 0.00
2:15 am 02:15 Clear 45 7 45 7 100 100 Calm 30.17 1022 7 11 0.00 0.00
2:35 am 02:35 Clear with Mist and Fog 45 7 43 6 93 93 Calm 30.17 1022 6 10 0.00 0.00
2:55 am 02:55 Mostly Clear with Mist and Fog 43 6 43 6 100 100 Calm 30.18 1022 5 8 0.00 0.00
3:15 am 03:15 Cloudy with Fog 43 6 41 5 93 93 Calm 30.18 1022 0 0 0.00 0.00
3:35 am 03:35 Mostly Cloudy with Mist and Fog 43 6 43 6 100 100 Calm 30.18 1022 3 4 0.00 0.00
3:55 am 03:55 Mostly Clear with Mist and Fog 43 6 43 6 100 100 Calm 30.18 1022 6 10 0.00 0.00
4:15 am 04:15 Partly Cloudy with Mist and Fog 43 6 43 6 100 100 Calm 30.17 1022 4 6 0.00 0.00
4:35 am 04:35 Cloudy with Mist and Fog 41 5 41 5 100 100 Calm 30.18 1022 1 2 0.00 0.00
4:55 am 04:55 Cloudy with Fog 43 6 43 6 100 100 Calm 30.18 1022 0 0 0.00 0.00
5:15 am 05:15 Cloudy with Fog 43 6 43 6 100 100 Calm 30.18 1022 0 0 0.00 0.00
5:35 am 05:35 Cloudy with Fog 43 6 43 6 100 100 Calm 30.18 1022 0 0 0.00 0.00
5:55 am 05:55 Cloudy with Fog 43 6 43 6 100 100 Calm 30.18 1022 0 0 0.00 0.00
6:15 am 06:15 Cloudy with Fog 43 6 43 6 100 100 Calm 30.18 1022 0 0 0.00 0.00
6:35 am 06:35 Cloudy with Fog 43 6 43 6 100 100 Calm 30.19 1022 0 0 0.00 0.00
6:55 am 06:55 Cloudy with Fog 43 6 43 6 100 100 Calm 30.20 1023 0 0 0.00 0.00
7:15 am 07:15 Cloudy with Fog 41 5 41 5 100 100 Calm 30.21 1023 0 0 0.00 0.00
7:35 am 07:35 Mostly Cloudy with Fog 41 5 41 5 100 100 Calm 30.20 1023 0 0 0.00 0.00
7:55 am 07:55 Mostly Cloudy with Fog 41 5 41 5 100 100 Calm 30.20 1023 0 0 0.00 0.00
8:15 am 08:15 Partly Cloudy with Mist and Fog 41 5 41 5 100 100 Calm 30.21 1023 2 3 0.00 0.00
8:35 am 08:35 Partly Cloudy with Fog 43 6 43 6 100 100 Calm 30.21 1023 0 0 0.00 0.00
8:55 am 08:55 Sunny with Mist and Fog 46 8 45 7 93 93 Calm 30.20 1023 3 4 0.00 0.00
9:15 am 09:15 Sunny 46 8 46 8 100 100 E 3 6 30.20 1023 10 16 0.00 0.00
9:35 am 09:35 Sunny 50 10 50 10 100 100 E 8 13 30.19 1022 10 16 0.00 0.00
9:55 am 09:55 Sunny 54 12 48 9 82 82 E 12 19 30.18 1022 10 16 0.00 0.00
10:15 am 10:15 Sunny 57 14 46 8 67 67 E 9 15 30.18 1022 10 16 0.00 0.00
10:35 am 10:35 Sunny 59 15 46 8 63 63 E 7 11 30.17 1022 10 16 0.00 0.00
10:55 am 10:55 Sunny 61 16 45 7 55 55 E 9 15 30.15 1021 10 16 0.00 0.00
11:15 am 11:15 Sunny 63 17 41 5 45 45 ESE 13 20 30.14 1021 10 16 0.00 0.00
11:35 am 11:35 Sunny 64 18 43 6 45 45 E 12 19 30.13 1020 10 16 0.00 0.00
11:55 am 11:55 Sunny 64 18 43 6 45 45 E 9 15 30.12 1020 10 16 0.00 0.00
12:15 pm 12:15 Sunny 64 18 43 6 45 45 VRB 6 9 30.10 1019 10 16 0.00 0.00
12:35 pm 12:35 Sunny 66 19 43 6 43 43 E 12 19 30.07 1018 10 16 0.00 0.00
12:55 pm 12:55 Sunny 68 20 43 6 40 40 E 10 17 30.06 1018 10 16 0.00 0.00
1:15 pm 13:15 Sunny 70 21 43 6 38 38 E 12 19 30.06 1018 10 16 0.00 0.00
1:35 pm 13:35 Sunny 68 20 43 6 40 40 SE 10 17 30.06 1018 10 16 0.00 0.00
1:55 pm 13:55 Sunny 68 20 45 7 43 43 SE 12 19 30.05 1018 10 16 0.00 0.00
2:15 pm 14:15 Mostly Sunny 68 20 45 7 43 43 SE 8 13 30.05 1018 10 16 0.00 0.00
2:35 pm 14:35 Mostly Cloudy 66 19 45 7 46 46 SSE 12 19 30.06 1018 10 16 0.00 0.00
2:55 pm 14:55 Cloudy 66 19 45 7 46 46 ESE 13 20 30.04 1017 10 16 0.00 0.00
3:15 pm 15:15 Cloudy 66 19 45 7 46 46 VRB 6 9 30.04 1017 10 16 0.00 0.00
3:35 pm 15:35 Cloudy 66 19 46 8 49 49 SSE 10 17 30.06 1018 10 16 0.00 0.00
3:55 pm 15:55 Cloudy 66 19 46 8 49 49 SE 8 13 30.06 1018 10 16 0.00 0.00
4:15 pm 16:15 Cloudy 66 19 46 8 49 49 SE 8 13 30.06 1018 10 16 0.00 0.00
4:35 pm 16:35 Cloudy 64 18 48 9 56 56 E 6 9 30.04 1017 10 16 0.00 0.00
4:55 pm 16:55 Cloudy 64 18 48 9 56 56 ESE 8 13 30.03 1017 10 16 0.00 0.00
5:15 pm 17:15 Cloudy 64 18 48 9 56 56 VRB 6 9 30.02 1016 10 16 0.00 0.00
5:35 pm 17:35 Cloudy 64 18 48 9 56 56 VRB 5 7 30.02 1016 10 16 0.00 0.00
5:55 pm 17:55 Cloudy 64 18 46 8 52 52 VRB 7 11 30.02 1016 10 16 0.00 0.00
6:15 pm 18:15 Cloudy 63 17 46 8 55 55 VRB 7 11 30.02 1017 10 16 0.00 0.00
6:35 pm 18:35 Cloudy 63 17 46 8 55 55 VRB 6 9 30.02 1017 10 16 0.00 0.00
6:55 pm 18:55 Cloudy 63 17 46 8 55 55 ESE 13 20 30.01 1016 10 16 0.00 0.00
7:15 pm 19:15 Cloudy 63 17 46 8 55 55 ESE 9 15 30.01 1016 10 16 0.00 0.00
7:35 pm 19:35 Cloudy 63 17 48 9 59 59 ESE 8 13 30.02 1017 10 16 0.00 0.00
7:55 pm 19:55 Cloudy 63 17 48 9 59 59 ESE 12 19 30.02 1017 10 16 0.00 0.00
8:15 pm 20:15 Cloudy 61 16 50 10 68 68 ESE 12 19 30.01 1016 10 16 0.00 0.00
8:35 pm 20:35 Cloudy 61 16 50 10 68 68 ESE 10 17 30.01 1016 10 16 0.00 0.00
8:55 pm 20:55 Cloudy with Light Rain 59 15 50 10 72 72 E 10 17 30.00 1016 10 16 0.00 0.00
9:15 pm 21:15 Cloudy with Light Rain 59 15 50 10 72 72 VRB 5 7 30.00 1016 10 16 0.00 0.00
9:35 pm 21:35 Cloudy with Light Rain 59 15 50 10 72 72 ESE 8 13 30.00 1016 9 14 0.00 0.00
9:55 pm 21:55 Cloudy with Light Rain 57 14 52 11 82 82 ESE 8 13 30.01 1016 6 10 0.00 0.00
10:15 pm 22:15 Cloudy with Light Rain 55 13 52 11 88 88 ESE 10 17 29.99 1016 7 11 0.00 0.00
10:35 pm 22:35 Cloudy with Light Rain 55 13 52 11 88 88 ESE 12 19 29.98 1015 10 16 0.00 0.00
10:55 pm 22:55 Cloudy 55 13 52 11 88 88 ESE 10 17 29.96 1015 10 16 0.02 0.51
11:15 pm 23:15 Cloudy 55 13 52 11 88 88 ESE 12 19 29.95 1014 10 16 0.00 0.00
11:35 pm 23:35 Cloudy 55 13 52 11 88 88 ESE 10 17 29.94 1014 10 16 0.00 0.00
11:55 pm 23:55 Cloudy 55 13 54 12 94 94 ESE 12 19 29.92 1013 10 16 0.00 0.00

Powered by AerisWeather